Location: Samoth
(37.3328°N, 88.7876°W)
Time: 16:01:19
(UTC+00:00)

X-37B - Pass Details

Date: 26 September 2021
Orbit: 385 x 389 km, 45.0° (Epoch: 17 October)

Event Time Altitude Azimuth Distance (km) Brightness Sun altitude
Exits shadow 10:26:41 19° 328° (NNW) 983 2.4 -16.6°
Maximum altitude 10:27:32 22° 352° (N) 916 2.5 -16.5°
Drops below altitude 10° 10:30:05 10° 45° (NE) 1,415 4.3 -16.0°
Sets 10:32:28 0° 62° (ENE) 2,271 5.9 -15.5°
